Regional Weather Roundup
Issued by NWS Cleveland, OH

Home | Current Version | Previous Version | Graphics & Text | Print | Product List | Glossary On
Versions: 1 2 3 4 5 6 7 8 9 10 11 12 13 14 15 16 17 18 19 20 21 22 23 24 25 26 27 28 29 30 31 32 33 34 35 36 37 38 39 40 41 42 43 44 45 46 47 48 49 50
000
ASUS41 KCLE 180402
RWRCLE
OHIO REGIONAL WEATHER ROUNDUP
NATIONAL WEATHER SERVICE CLEVELAND, OH
1200 AM EDT SAT APR 18 2015

NOTE: "FAIR" INDICATES FEW OR NO CLOUDS BELOW 12,000 FEET WITH NO
SIGNIFICANT WEATHER AND/OR OBSTRUCTIONS TO VISIBILITY.

OHZ001>008-015>018-024>027-034-035-043-044-180500-
   NORTHWEST OHIO

CITY           SKY/WX    TMP DP  RH WIND       PRES   REMARKS
DEFIANCE       CLEAR     57  45  64 CALM      30.02F
FINDLAY        CLEAR     61  39  44 S3        30.02F
TOLEDO EXPRESS CLEAR     55  41  59 CALM      30.01F
TOLEDO EXEC    CLEAR     58  41  53 SW3       30.02S
LIMA           CLEAR     61  40  45 S7        30.03F
$$

OHZ009>014-019>023-028>033-038-089-180500-
   NORTHEAST OHIO

CITY           SKY/WX    TMP DP  RH WIND       PRES   REMARKS
CLE-HOPKINS    CLEAR     55  46  71 CALM      30.05S
CLE-LAKEFRONT  CLEAR     59  47  64 SE9       30.01F
CUY CO. ARPT   NOT AVBL
LORAIN-ELYRIA  CLEAR     55  48  77 S5        30.03S
ASHTABULA      CLEAR     46  43  89 CALM      30.05S
AKRON-CANTON   CLEAR     58  44  60 S5        30.05F
WOOSTER        CLEAR     50  47  89 CALM      30.06S
MANSFIELD      CLEAR     56  44  64 S5        30.06R
YOUNGSTOWN     CLEAR     50  47  89 E6        30.04F
$$

OHZ042-051>053-060>062-070>072-077>081-180500-
  SOUTHWEST OHIO

CITY           SKY/WX    TMP DP  RH WIND       PRES   REMARKS
CINC-COVINGTON PTCLDY    59  46  62 CALM      30.04S
CINC-LUNKEN    MOCLDY    53  51  93 CALM      30.05S
HAMILTON       MOCLDY    54  47  77 CALM      30.05S
DAYTON         PTCLDY    62  40  44 E3        30.06S
WRIGHT-PAT AFB PTCLDY    55  44  66 E2        30.05S
DAYTON GENERAL MOCLDY    59  42  53 E5        30.04S
WILMINGTON     MOCLDY    57  43  59 NE6       30.05F
$$

OHZ036-037-039>041-045>050-054>059-063>069-073>076-082>088-180500-
  CENTRAL AND SOUTHEAST OHIO

CITY           SKY/WX    TMP DP  RH WIND       PRES   REMARKS
COLUMBUS       MOCLDY    60  43  53 CALM      30.05S
OSU AIRPORT    PTCLDY    58  42  55 CALM      30.05S
BOLTON FIELD   NOT AVBL
RICKENBACK AFB NOT AVBL
NEWARK         PTCLDY    51  46  83 CALM      30.05S
MARION         CLEAR     55  44  66 S3        30.05S
LANCASTER      MOCLDY    52  49  89 CALM      30.06S
ZANESVILLE     PTCLDY    56  46  69 CALM      30.05S
NEW PHILLY     PTCLDY    54  47  77 CALM      30.06S
$$



USA.gov is the U.S. government's official web portal to all federal, state and local government web resources and services.